This demonstration page uses our WeatherBlox Daily Observations layout. Learn more.

Left ArrowRight Arrow

39.01783, -85.05884

Hourly Observations for October 24, 2015

Temp ( °F °C ) Dew Point ( °F °C ) Humidity (%) Winds ( mph kmh ) Pressure ( in mb ) Visibility ( mi km ) Precip ( " mm )
12:52 am 00:52 Mostly Cloudy 66 18.9 54 12.2 65 65 S 5 7 30.04 1017 10 16 N/A
1:52 am 01:52 Cloudy 64 17.8 53 11.7 68 68 SE 5 7 30.04 1017 10 16 N/A
2:52 am 02:52 Cloudy with Light Rain 65 18.3 53 11.7 66 66 S 3 6 30.04 1017 10 16 N/A
3:52 am 03:52 Cloudy 63 17.2 53 11.7 70 70 SSW 3 6 30.02 1017 10 16 N/A
4:52 am 04:52 Cloudy 63 17.2 53 11.7 70 70 S 6 9 30.02 1017 10 16 N/A
5:52 am 05:52 Cloudy with Light Rain 61 16.1 55 12.8 81 81 S 6 9 30.03 1017 7 11 0.01 0.25
6:52 am 06:52 Cloudy with Light Rain 60 15.6 57 13.9 90 90 S 10 17 30.03 1017 10 16 0.02 0.51
7:52 am 07:52 Cloudy 61 16.1 59 15 93 93 S 12 19 30.02 1017 10 16 N/A
8:52 am 08:52 Cloudy 63 17.2 60 15.6 90 90 S 12 19 30.02 1017 10 16 N/A
9:52 am 09:52 Cloudy 64 17.8 61 16.1 90 90 S 13 20 30.02 1017 10 16 N/A
10:52 am 10:52 Cloudy 66 18.9 61 16.1 84 84 S 16 26 30.01 1016 10 16 N/A
11:52 am 11:52 Cloudy 67 19.4 62 16.7 84 84 S 15 24 30.01 1016 10 16 N/A
12:52 pm 12:52 Cloudy 68 20 61 16.1 78 78 SSW 15 24 30.00 1016 10 16 N/A
1:52 pm 13:52 Cloudy 70 21.1 60 15.6 71 71 SSW 17 28 29.98 1015 10 16 N/A
2:52 pm 14:52 Cloudy 69 20.6 61 16.1 76 76 S 16 26 29.96 1014 10 16 N/A
2:56 pm 14:56 Cloudy 70 21 61 16 73 73 SSW 15 24 29.94 1014 10 16 N/A
3:38 pm 15:38 Cloudy with Light Rain 66 19 63 17 88 88 S 17 28 29.94 1014 3 5 N/A
3:52 pm 15:52 Cloudy with Light Rain 65 18.3 63 17.2 93 93 S 14 22 29.95 1014 3 5 0.02 0.51
4:00 pm 16:00 Cloudy with Light Rain 64 18 63 17 94 94 S 16 26 29.94 1014 3 5 0.01 0.25
4:44 pm 16:44 Cloudy with Heavy Rain 64 18 63 17 94 94 SSW 10 17 29.94 1014 3 4 N/A
4:52 pm 16:52 Cloudy with Rain 65 18.3 63 17.2 93 93 S 15 24 29.94 1014 3 4 0.06 1.52
5:35 pm 17:35 Cloudy with Light Rain 66 19 64 18 94 94 SSW 17 28 29.94 1014 7 11 0.02 0.51
5:52 pm 17:52 Cloudy 66 18.9 64 17.8 93 93 SSW 17 28 29.94 1014 8 13 0.03 0.76
6:09 pm 18:09 Cloudy 66 19 64 18 94 94 SSW 17 28 29.94 1014 10 16 N/A
6:43 pm 18:43 Cloudy with Light Rain 66 19 64 18 94 94 SSW 17 28 29.94 1014 3 4 N/A
6:52 pm 18:52 Cloudy with Light Rain 66 18.9 63 17.2 90 90 SSW 17 28 29.95 1014 3 4 0.01 0.25
7:08 pm 19:08 Cloudy with Light Rain 64 18 63 17 94 94 SSW 13 20 29.94 1014 4 6 N/A
7:14 pm 19:14 Cloudy with Light Rain 64 18 63 17 94 94 SSW 13 20 29.94 1014 7 11 N/A
7:52 pm 19:52 Cloudy with Light Rain 65 18.3 63 17.2 93 93 SW 16 26 29.96 1015 7 11 0.05 1.27
8:52 pm 20:52 Cloudy with Light Rain 65 18.3 64 17.8 97 97 SW 7 11 29.98 1015 8 13 0.05 1.27
9:29 pm 21:29 Cloudy with Heavy Rain 63 17 59 15 88 88 WNW 18 30 30.03 1017 3 5 0.04 1.02
9:37 pm 21:37 Cloudy with Light Rain 61 16 57 14 88 88 WNW 15 24 30.03 1017 5 8 0.05 1.27
9:52 pm 21:52 Cloudy 61 16.1 57 13.9 87 87 WNW 12 19 30.02 1017 10 16 0.05 1.27
10:52 pm 22:52 Cloudy 60 15.6 56 13.3 86 86 NW 12 19 30.04 1017 10 16 N/A
11:52 pm 23:52 Cloudy 60 15.6 54 12.2 80 80 WNW 9 15 30.06 1018 10 16 N/A

Powered by AerisWeather